Pilot Mountain, NC

3:46 AM EDT on August 31, 2016 (GMT -0400)
Mount Airy-Surry County

Weather History for KMWK - October, 2013

Change the Weather History Date:

Thursday, October 3, 2013

  Actual Average (KINT) Record (KINT)
Temperature  
Mean Temperature 70 °F -  
Max Temperature 81 °F 71 °F 88 °F (1986)
Min Temperature 58 °F 52 °F 26 °F (1974)
Cooling Degree Days 4    
Growing Degree Days 20 (Base 50)    
Moisture  
Dew Point 60 °F    
Average Humidity 78    
Maximum Humidity 92    
Minimum Humidity 50    
Precipitation  
Precipitation 0.00 in - - ()
Sea Level Pressure  
Sea Level Pressure 30.12 in    
Wind  
Wind Speed 0 mph (SSW)    
Max Wind Speed 6 mph    
Max Gust Speed -    
Visibility 9 miles    
Events      
Averages and records for this station are not official NWS values.
T = Trace of Precipitation, MM = Missing Value Source: NWS Daily Summary

Daily Weather History Graph

Daily Weather History Graph

Search for Another Location

Airport or City:

Trip Planner

Search our weather history database for the weather conditions in past years. The results will help you decide how hot, cold, wet, or windy it might be!

Date:

Astronomy

Oct. 03, 2013 Rise Set
Actual Time 7:19 AM EDT 7:02 PM EDT
Civil Twilight 6:53 AM EDT 7:28 PM EDT
Nautical Twilight 6:23 AM EDT 7:57 PM EDT
Astronomical Twilight 5:53 AM EDT 8:27 PM EDT
Moon 5:52 AM EDT (10/3) 6:09 PM EDT (10/3)
Length of Visible Light 12h 34m
Length of Day
11h 43m
Waning Crescent, 2% of the Moon is Illuminated
Oct 3
Waning Crescent
Oct 4
New
Oct 11
First Quarter
Oct 18
Full
Oct 26
Last Quarter

Hourly Weather History & Observations

Time (EDT) Temp. Heat Index Dew Point Humidity Pressure Visibility Wind Dir Wind Speed Gust Speed Precip Events Conditions
12:15 AM 62.4 °F - 59.4 °F 90% 30.14 in 10.0 mi Calm Calm - N/A   Clear
12:35 AM 62.2 °F - 59.4 °F 90% 30.14 in 10.0 mi Calm Calm - N/A   Clear
1:15 AM 61.0 °F - 58.5 °F 91% 30.13 in 7.0 mi Calm Calm - N/A   Clear
1:55 AM 60.4 °F - 57.9 °F 91% 30.14 in 7.0 mi Calm Calm - N/A   Clear
2:15 AM 60.3 °F - 57.9 °F 92% 30.14 in 10.0 mi Calm Calm - N/A   Clear
2:55 AM 60.3 °F - 57.6 °F 91% 30.13 in 10.0 mi Calm Calm - N/A   Clear
3:15 AM 60.3 °F - 57.4 °F 90% 30.12 in 10.0 mi Calm Calm - N/A   Clear
3:35 AM 61.0 °F - 58.3 °F 91% 30.12 in 10.0 mi Calm Calm - N/A   Clear
3:55 AM 60.3 °F - 57.6 °F 91% 30.12 in 7.0 mi Calm Calm - N/A   Clear
4:15 AM 59.9 °F - 57.4 °F 91% 30.12 in 7.0 mi Calm Calm - N/A   Clear
4:35 AM 59.9 °F - 57.2 °F 91% 30.12 in 7.0 mi Calm Calm - N/A   Clear
4:55 AM 59.2 °F - 56.8 °F 92% 30.12 in 7.0 mi Calm Calm - N/A   Clear
5:15 AM 59.0 °F - 56.7 °F 92% 30.12 in 7.0 mi Calm Calm - N/A   Clear
5:35 AM 59.0 °F - 56.3 °F 91% 30.12 in 7.0 mi Calm Calm - N/A   Clear
6:15 AM 58.5 °F - 55.9 °F 91% 30.12 in 7.0 mi Calm Calm - N/A   Clear
6:35 AM 58.5 °F - 55.9 °F 91% 30.13 in 7.0 mi Calm Calm - N/A   Clear
6:55 AM 58.6 °F - 56.1 °F 91% 30.13 in 7.0 mi Calm Calm - N/A   Clear
7:15 AM 59.0 °F - 56.5 °F 91% 30.13 in 7.0 mi Calm Calm - N/A   Clear
7:35 AM 59.0 °F - 56.3 °F 91% 30.14 in 10.0 mi Calm Calm - N/A   Clear
7:55 AM 59.0 °F - 56.3 °F 91% 30.14 in 7.0 mi Calm Calm - N/A   Scattered Clouds
8:15 AM 61.3 °F - 58.5 °F 90% 30.14 in 7.0 mi Calm Calm - N/A   Clear
8:35 AM 62.8 °F - 59.4 °F 89% 30.14 in 10.0 mi Calm Calm - N/A   Clear
8:55 AM 62.8 °F - 59.0 °F 87% 30.15 in 10.0 mi Calm Calm - N/A   Clear
9:15 AM 64.2 °F - 60.4 °F 87% 30.15 in 10.0 mi Calm Calm - N/A   Mostly Cloudy
9:55 AM 68.5 °F - 61.7 °F 79% 30.15 in 10.0 mi Calm Calm - N/A   Scattered Clouds
10:35 AM 71.2 °F - 64.0 °F 78% 30.16 in 10.0 mi Calm Calm - N/A   Scattered Clouds
11:15 AM 73.6 °F - 63.0 °F 69% 30.16 in 10.0 mi Calm Calm - N/A   Mostly Cloudy
11:35 AM 74.8 °F - 64.4 °F 70% 30.15 in 10.0 mi Calm Calm - N/A   Overcast
11:55 AM 76.8 °F - 63.1 °F 63% 30.15 in 10.0 mi Calm Calm - N/A   Overcast
12:15 PM 77.7 °F - 63.7 °F 62% 30.14 in 10.0 mi Calm Calm - N/A   Mostly Cloudy
12:55 PM 78.1 °F - 64.0 °F 62% 30.14 in 10.0 mi WSW 3.5 mph - N/A   Overcast
1:15 PM 78.6 °F - 63.5 °F 60% 30.14 in 10.0 mi SW 5.8 mph - N/A   Mostly Cloudy
1:35 PM 79.5 °F - 62.6 °F 56% 30.13 in 10.0 mi SW 4.6 mph - N/A   Scattered Clouds
2:15 PM 80.8 °F 81.5 °F 60.8 °F 50% 30.12 in 10.0 mi SSW 4.6 mph - N/A   Clear
2:35 PM 80.1 °F 81.0 °F 60.4 °F 51% 30.11 in 10.0 mi SSW 4.6 mph - N/A   Scattered Clouds
3:15 PM 80.1 °F 81.1 °F 61.0 °F 52% 30.10 in 10.0 mi SSW 3.5 mph - N/A   Clear
3:35 PM 80.4 °F 81.4 °F 61.3 °F 52% 30.10 in 10.0 mi SSW 3.5 mph - N/A   Clear
4:15 PM 81.1 °F 81.9 °F 60.6 °F 50% 30.09 in 10.0 mi SSW 3.5 mph - N/A   Clear
4:35 PM 79.5 °F - 61.7 °F 54% 30.09 in 10.0 mi Calm Calm - N/A   Clear
4:55 PM 80.4 °F 81.6 °F 62.4 °F 54% 30.09 in 10.0 mi Calm Calm - N/A   Clear
5:35 PM 80.2 °F 81.2 °F 61.2 °F 52% 30.09 in 10.0 mi South 3.5 mph - N/A   Clear
5:55 PM 80.1 °F 81.1 °F 61.2 °F 52% 30.10 in 10.0 mi South 3.5 mph - N/A   Clear
6:15 PM 79.2 °F - 61.5 °F 55% 30.10 in 10.0 mi Calm Calm - N/A   Clear
6:35 PM 78.6 °F - 61.7 °F 56% 30.10 in 10.0 mi Calm Calm - N/A   Clear
6:55 PM 75.2 °F - 64.0 °F 68% 30.10 in 10.0 mi Calm Calm - N/A   Clear
7:15 PM 72.5 °F - 65.8 °F 80% 30.11 in 10.0 mi Calm Calm - N/A   Clear
7:55 PM 69.3 °F - 64.6 °F 85% 30.11 in 10.0 mi Calm Calm - N/A   Clear
8:15 PM 68.5 °F - 63.7 °F 84% 30.11 in 10.0 mi Calm Calm - N/A   Clear
8:35 PM 68.4 °F - 63.5 °F 84% 30.12 in 10.0 mi Calm Calm - N/A   Clear
8:55 PM 67.1 °F - 62.6 °F 85% 30.12 in 10.0 mi Calm Calm - N/A   Clear
9:15 PM 67.3 °F - 62.6 °F 85% 30.12 in 10.0 mi Calm Calm - N/A   Clear
9:35 PM 66.4 °F - 61.9 °F 85% 30.12 in 10.0 mi Calm Calm - N/A   Clear
10:15 PM 65.5 °F - 61.7 °F 88% 30.12 in 10.0 mi Calm Calm - N/A   Clear
10:35 PM 64.9 °F - 61.3 °F 88% 30.13 in 10.0 mi Calm Calm - N/A   Clear
10:55 PM 65.3 °F - 61.5 °F 88% 30.13 in 10.0 mi Calm Calm - N/A   Clear
11:15 PM 63.9 °F - 60.4 °F 89% 30.12 in 10.0 mi Calm Calm - N/A   Clear
11:35 PM 63.7 °F - 60.3 °F 89% 30.12 in 10.0 mi Calm Calm - N/A   Clear